History for Ft Lauderdale, FL

Sunday, February 19, 2017 — View Current Conditions

Jump to Data:

Date:
Airport Code:
Recently Viewed Airport Codes: KFLL
Daily Summary
  Actual Average Record
Temperature
Mean Temperature 79°F 71°F  
Max Temperature 88°F 78°F 89°F (1926)
Min Temperature 70°F 64°F 35°F (1958)
Degree Days
Heating Degree Days 0 1  
Month to date heating degree days 0 19  
Since 1 July heating degree days 29 99  
Cooling Degree Days 14 7  
Month to date cooling degree days 155 124  
Year to date cooling degree days 368 294  
Growing Degree Days 30 (Base 50)    
Moisture
Dew Point 68°F    
Average Humidity 70    
Maximum Humidity 100    
Minimum Humidity 40    
Precipitation
Precipitation T in 0.08 in 2.56 in (1981)
Month to date precipitation 0.13 2.12  
Year to date precipitation 1.84 5.75  
Snow
Snow 0.00 in in in ()
Month to date snowfall 0.0  
Since 1 July snowfall 0.0  
Snow Depth 0.00 in    
Sea Level Pressure
Sea Level Pressure 30.02 in    
Wind
Wind Speed 8 mph (WNW)    
Max Wind Speed 20 mph    
Max Gust Speed 24 mph    
Visibility 10 miles    
Events      
T = Trace of Precipitation, MM = Missing Value Source: NWS Daily Summary

Show full METARS

(help) - Comma Delimited File

Hourly Observations

Time(EST) Temperature Dew Point Humidity Sea Level Pressure Visibility Wind Direction Wind Speed Gust Speed Precipitation Events Conditions
12:53 AM 73.0°F 70.0°F 90% 30.01 in 10.0 miles South 5.8 mph - N/A   Mostly Cloudy
1:53 AM 72.0°F 70.0°F 93% 30.01 in 10.0 miles SW 3.5 mph - N/A   Mostly Cloudy
2:53 AM 72.0°F 70.0°F 93% 30.00 in 10.0 miles South 3.5 mph - N/A   Mostly Cloudy
3:53 AM 71.1°F 69.1°F 93% 30.00 in 10.0 miles SW 3.5 mph - N/A   Mostly Cloudy
4:53 AM 72.0°F 70.0°F 93% 29.99 in 10.0 miles Variable 5.8 mph - N/A   Mostly Cloudy
5:53 AM 72.0°F 71.1°F 97% 30.01 in 10.0 miles WSW 3.5 mph - N/A   Mostly Cloudy
6:53 AM 71.1°F 70.0°F 96% 30.03 in 9.0 miles SW 5.8 mph - N/A   Scattered Clouds
7:53 AM 72.0°F 72.0°F 100% 30.04 in 9.0 miles SW 4.6 mph - N/A   Scattered Clouds
8:53 AM 75.9°F 73.0°F 91% 30.06 in 10.0 miles SW 10.4 mph - N/A   Partly Cloudy
9:53 AM 80.1°F 70.0°F 71% 30.06 in 10.0 miles WSW 12.7 mph 18.4 mph N/A   Scattered Clouds
10:53 AM 82.0°F 69.1°F 65% 30.06 in 10.0 miles West 12.7 mph - N/A   Mostly Cloudy
11:53 AM 84.9°F 66.0°F 53% 30.04 in 10.0 miles West 11.5 mph - N/A   Scattered Clouds
12:53 PM 86.0°F 66.0°F 51% 30.01 in 10.0 miles West 15.0 mph 21.9 mph N/A   Scattered Clouds
1:53 PM 86.0°F 64.0°F 48% 29.99 in 10.0 miles NW 9.2 mph - N/A   Scattered Clouds
2:53 PM 88.0°F 62.1°F 42% 29.98 in 10.0 miles NW 12.7 mph - N/A   Mostly Cloudy
3:53 PM 87.1°F 61.0°F 41% 29.98 in 10.0 miles NW 11.5 mph 19.6 mph N/A   Mostly Cloudy
4:53 PM 79.0°F 70.0°F 74% 29.99 in 10.0 miles ENE 16.1 mph - N/A   Mostly Cloudy
5:53 PM 77.0°F 70.0°F 79% 30.01 in 10.0 miles ENE 10.4 mph - N/A   Partly Cloudy
6:53 PM 75.0°F 69.1°F 82% 30.02 in 10.0 miles ENE 10.4 mph - N/A   Partly Cloudy
7:53 PM 73.9°F 69.1°F 85% 30.04 in 10.0 miles NE 8.1 mph - N/A   Scattered Clouds
8:53 PM 73.9°F 68.0°F 82% 30.05 in 10.0 miles NE 4.6 mph - N/A   Mostly Cloudy
9:53 PM 73.9°F 68.0°F 82% 30.07 in 10.0 miles NE 4.6 mph - 0.00 in   Mostly Cloudy
10:53 PM 73.0°F 66.0°F 79% 30.08 in 10.0 miles NE 4.6 mph - N/A   Scattered Clouds
11:53 PM 72.0°F 64.0°F 76% 30.07 in 10.0 miles NNE 4.6 mph - N/A   Partly Cloudy